FW6817 Weather Reports


time (UTC)temp
C
wind
direction
speed
KPH
gust
KPH
rain 1hr
cm
rain 24hr
cm
rain mn
cm
humidity
%
barometer
mb
20260510190549 28 0 0.0 1.6 0.00 0.00 0.00 39 1015.6
20260510190057 27 0 0.0 4.8 0.00 0.00 0.00 37 1015.6
20260510185547 28 0 0.0 4.8 0.00 0.00 0.00 38 1015.7
20260510185047 28 244 0.0 6.4 0.00 0.00 0.00 41 1015.7
20260510184556 28 244 1.6 6.4 0.00 0.00 0.00 40 1015.6
20260510184047 27 0 1.6 4.8 0.00 0.00 0.00 39 1015.6
20260510183547 28 0 0.0 0.0 0.00 0.00 0.00 39 1015.7
20260510183057 27 0 0.0 1.6 0.00 0.00 0.00 37 1015.6
20260510182546 27 0 0.0 1.6 0.00 0.00 0.00 35 1015.7
20260510182047 27 151 0.0 1.6 0.00 0.00 0.00 38 1015.7
20260510181556 27 0 0.0 1.6 0.00 0.00 0.00 38 1015.8
20260510181046 27 0 0.0 0.0 0.00 0.00 0.00 42 1015.8
20260510180546 27 0 0.0 0.0 0.00 0.00 0.00 36 1016.0
20260510180053 27 0 0.0 0.0 0.00 0.00 0.00 38 1016.0
20260510175545 27 0 0.0 1.6 0.00 0.00 0.00 38 1016.0
20260510175048 27 0 0.0 1.6 0.00 0.00 0.00 39 1016.1
20260510174551 27 0 0.0 0.0 0.00 0.00 0.00 44 1016.0
20260510174046 27 0 0.0 1.6 0.00 0.00 0.00 36 1016.0
20260510173547 27 0 0.0 1.6 0.00 0.00 0.00 43 1016.1
20260510173049 26 0 0.0 4.8 0.00 0.00 0.00 42 1016.2
20260510172547 26 0 0.0 6.4 0.00 0.00 0.00 44 1016.2
20260510172047 26 0 3.2 6.4 0.00 0.00 0.00 40 1016.2
20260510171554 26 263 0.0 6.4 0.00 0.00 0.00 47 1016.2
20260510171046 26 0 1.6 6.4 0.00 0.00 0.00 41 1016.2
20260510170547 26 352 0.0 4.8 0.00 0.00 0.00 48 1016.2
20260510170054 26 49 1.6 6.4 0.00 0.00 0.00 42 1016.4
20260510165547 26 155 0.0 6.4 0.00 0.00 0.00 43 1016.2
20260510165049 26 58 3.2 8.0 0.00 0.00 0.00 38 1016.2
20260510164558 26 297 1.6 8.0 0.00 0.00 0.00 40 1016.3
20260510164047 26 0 0.0 1.6 0.00 0.00 0.00 38 1016.3
20260510163547 26 0 0.0 0.0 0.00 0.00 0.00 40 1016.4
20260510163056 25 0 0.0 1.6 0.00 0.00 0.00 42 1016.4
20260510162546 25 0 0.0 6.4 0.00 0.00 0.00 47 1016.4
20260510162046 26 0 0.0 6.4 0.00 0.00 0.00 48 1016.4
20260510161602 26 0 0.0 6.4 0.00 0.00 0.00 46 1016.4
20260510161047 25 0 0.0 0.0 0.00 0.00 0.00 53 1016.5
20260510160547 25 0 0.0 0.0 0.00 0.00 0.00 50 1016.5
20260510160133 25 0 0.0 9.7 0.00 0.00 0.00 46 1016.4
20260510155546 25 0 0.0 9.7 0.00 0.00 0.00 48 1016.5
20260510155047 26 9 0.0 3.2 0.00 0.00 0.00 53 1016.4
20260510154600 26 0 0.0 4.8 0.00 0.00 0.00 49 1016.4
20260510154048 25 310 0.0 4.8 0.00 0.00 0.00 51 1016.5
20260510153546 24 0 0.0 4.8 0.00 0.00 0.00 52 1016.5
20260510153052 23 0 0.0 1.6 0.00 0.00 0.00 51 1016.4
20260510152548 23 0 0.0 1.6 0.00 0.00 0.00 58 1016.6
20260510152045 23 0 0.0 3.2 0.00 0.00 0.00 64 1016.6
20260510151552 23 0 0.0 3.2 0.00 0.00 0.00 61 1016.7
20260510151047 22 0 0.0 1.6 0.00 0.00 0.00 57 1016.8
20260510150547 23 0 0.0 3.2 0.00 0.00 0.00 68 1016.8
20260510150055 22 0 0.0 6.4 0.00 0.00 0.00 72 1016.8
20260510145551 22 0 0.0 6.4 0.00 0.00 0.00 69 1016.7
20260510145047 22 81 0.0 3.2 0.00 0.00 0.00 67 1016.7
20260510144550 22 264 0.0 3.2 0.00 0.00 0.00 76 1016.8
20260510144048 21 0 0.0 1.6 0.00 0.00 0.00 75 1016.7
20260510143547 21 0 0.0 1.6 0.00 0.00 0.00 76 1016.6
20260510143055 20 0 0.0 1.6 0.00 0.00 0.00 77 1016.6
20260510142547 20 0 0.0 1.6 0.00 0.00 0.00 79 1016.7
20260510142047 18 0 0.0 0.0 0.00 0.00 0.00 79 1016.7
20260510141554 18 0 0.0 0.0 0.00 0.00 0.00 86 1016.6
20260510141047 17 0 0.0 0.0 0.00 0.00 0.00 88 1016.6
20260510140546 17 0 0.0 0.0 0.00 0.00 0.00 95 1016.5
20260510140055 16 0 0.0 0.0 0.00 0.00 0.00 96 1016.5
20260510135547 16 0 0.0 0.0 0.00 0.00 0.00 96 1016.6
20260510135048 16 0 0.0 0.0 0.00 0.00 0.00 96 1016.5
20260510134552 16 0 0.0 6.4 0.00 0.00 0.00 96 1016.5
20260510134046 16 0 0.0 6.4 0.00 0.00 0.00 96 1016.5
20260510133546 16 0 0.0 6.4 0.00 0.00 0.00 96 1016.4
20260510133050 16 0 0.0 0.0 0.00 0.00 0.00 96 1016.5
20260510132548 16 0 0.0 1.6 0.00 0.00 0.00 96 1016.4
20260510132047 16 0 0.0 1.6 0.00 0.00 0.00 96 1016.6
20260510131552 16 0 0.0 0.0 0.00 0.00 0.00 96 1016.5
20260510131047 16 0 0.0 0.0 0.00 0.00 0.00 96 1016.5
20260510130547 15 0 0.0 0.0 0.00 0.00 0.00 96 1016.4
20260510130048 15 0 0.0 0.0 0.00 0.00 0.00 96 1016.3
20260510125548 15 0 0.0 0.0 0.00 0.00 0.00 95 1016.4
20260510125048 15 0 0.0 0.0 0.00 0.00 0.00 95 1016.3
20260510124551 15 0 0.0 0.0 0.00 0.00 0.00 95 1016.2
20260510124047 15 0 0.0 0.0 0.00 0.00 0.00 95 1016.2
20260510123547 15 0 0.0 0.0 0.00 0.00 0.00 95 1016.1
20260510123052 15 0 0.0 0.0 0.00 0.00 0.00 95 1016.0
20260510122546 15 0 0.0 0.0 0.00 0.00 0.00 95 1015.9
20260510122047 15 0 0.0 0.0 0.00 0.00 0.00 95 1015.8
20260510121551 15 0 0.0 0.0 0.00 0.00 0.00 95 1015.7
20260510121048 14 0 0.0 0.0 0.00 0.00 0.00 95 1015.6
20260510120547 14 0 0.0 0.0 0.00 0.00 0.00 95 1015.6
20260510120049 14 0 0.0 0.0 0.00 0.00 0.00 94 1015.5
20260510115549 14 0 0.0 0.0 0.00 0.00 0.00 94 1015.4
20260510115047 14 0 0.0 0.0 0.00 0.00 0.00 94 1015.4
20260510114551 14 0 0.0 0.0 0.00 0.00 0.00 94 1015.4
20260510114048 14 0 0.0 0.0 0.00 0.00 0.00 94 1015.3
20260510113547 14 0 0.0 0.0 0.00 0.00 0.00 94 1015.2
20260510113052 14 0 0.0 0.0 0.00 0.00 0.00 94 1015.1
20260510112548 14 0 0.0 0.0 0.00 0.00 0.00 94 1015.1
20260510112051 14 0 0.0 0.0 0.00 0.00 0.00 94 1015.0
20260510111607 14 0 0.0 0.0 0.00 0.00 0.00 93 1014.9
20260510111047 14 0 0.0 0.0 0.00 0.00 0.00 93 1014.9
20260510110551 14 0 0.0 0.0 0.00 0.00 0.00 93 1014.8
20260510110051 14 0 0.0 0.0 0.00 0.00 0.00 93 1014.5
20260510105547 14 0 0.0 0.0 0.00 0.00 0.00 93 1014.5
20260510105047 14 0 0.0 0.0 0.00 0.00 0.00 93 1014.4
20260510104550 14 0 0.0 0.0 0.00 0.00 0.00 93 1014.3
20260510104046 14 0 0.0 0.0 0.00 0.00 0.00 93 1014.3
20260510103549 14 0 0.0 0.0 0.00 0.00 0.00 93 1014.3
20260510103053 14 0 0.0 0.0 0.00 0.00 0.00 93 1014.2
20260510102547 14 0 0.0 0.0 0.00 0.00 0.00 93 1014.1
20260510102047 14 0 0.0 0.0 0.00 0.00 0.00 93 1014.1
20260510101552 14 0 0.0 0.0 0.00 0.00 0.00 93 1014.0
20260510101050 15 0 0.0 0.0 0.00 0.00 0.00 93 1014.0
20260510100547 15 0 0.0 0.0 0.00 0.00 0.00 93 1013.9
20260510100052 15 0 0.0 0.0 0.00 0.00 0.00 93 1013.8
20260510095548 15 0 0.0 0.0 0.00 0.00 0.00 93 1013.7
20260510095046 15 0 0.0 0.0 0.00 0.00 0.00 93 1013.7
20260510094552 15 0 0.0 0.0 0.00 0.00 0.00 93 1013.7
20260510094044 15 0 0.0 0.0 0.00 0.00 0.00 93 1013.6
20260510093544 15 0 0.0 0.0 0.00 0.00 0.00 93 1013.6
20260510093102 15 0 0.0 0.0 0.00 0.00 0.00 93 1013.6
20260510092548 15 0 0.0 0.0 0.00 0.00 0.00 93 1013.6
20260510092048 15 0 0.0 0.0 0.00 0.00 0.00 93 1013.5
20260510091549 15 0 0.0 0.0 0.00 0.00 0.00 93 1013.4
20260510091050 15 0 0.0 0.0 0.00 0.00 0.00 93 1013.3
20260510090548 15 0 0.0 0.0 0.00 0.00 0.00 93 1013.4
20260510090056 15 0 0.0 0.0 0.00 0.00 0.00 93 1013.3
20260510085547 15 0 0.0 0.0 0.00 0.00 0.00 93 1013.3
20260510085048 15 0 0.0 0.0 0.00 0.00 0.00 93 1013.1
20260510084551 15 0 0.0 0.0 0.00 0.00 0.00 93 1013.1
20260510084045 15 0 0.0 0.0 0.00 0.00 0.00 93 1013.2
20260510083548 15 0 0.0 0.0 0.00 0.00 0.00 93 1013.2
20260510083102 15 0 0.0 0.0 0.00 0.00 0.00 93 1013.2
20260510082544 15 0 0.0 0.0 0.00 0.00 0.00 93 1013.1
20260510082047 15 0 0.0 0.0 0.00 0.00 0.00 93 1013.2
20260510081607 15 0 0.0 0.0 0.00 0.00 0.00 93 1013.1
20260510081044 15 0 0.0 0.0 0.00 0.00 0.00 93 1012.9
20260510080544 15 0 0.0 0.0 0.00 0.00 0.00 93 1012.9
20260510080054 15 0 0.0 0.0 0.00 0.00 0.00 93 1012.9
20260510075548 15 0 0.0 0.0 0.00 0.00 0.00 93 1012.8
20260510075044 15 0 0.0 0.0 0.00 0.00 0.00 92 1012.9
20260510074558 15 0 0.0 0.0 0.00 0.00 0.00 92 1012.9
20260510074051 15 0 0.0 0.0 0.00 0.00 0.00 92 1012.8
20260510073548 15 0 0.0 0.0 0.00 0.00 0.00 92 1012.9
20260510073053 15 0 0.0 0.0 0.00 0.00 0.00 92 1013.0
20260510072548 15 0 0.0 0.0 0.00 0.00 0.00 92 1013.0
20260510072050 15 0 0.0 0.0 0.00 0.00 0.00 91 1012.9
20260510071552 15 0 0.0 0.0 0.00 0.00 0.00 91 1012.8
20260510071044 15 0 0.0 0.0 0.00 0.00 0.00 91 1012.7
20260510070544 15 0 0.0 0.0 0.00 0.00 0.00 91 1012.5
20260510070050 15 0 0.0 0.0 0.00 0.00 0.00 91 1012.5
20260510065553 15 0 0.0 0.0 0.00 0.00 0.00 91 1012.7
20260510065052 15 0 0.0 0.0 0.00 0.00 0.00 91 1012.7
20260510064604 15 0 0.0 0.0 0.00 0.00 0.00 91 1012.7
20260510064044 15 0 0.0 0.0 0.00 0.00 0.00 91 1012.7
20260510063548 15 0 0.0 0.0 0.00 0.00 0.00 92 1012.7
20260510063052 15 0 0.0 0.0 0.00 0.00 0.00 92 1012.8
20260510062549 15 0 0.0 0.0 0.00 0.00 0.00 92 1012.7
20260510062048 15 0 0.0 0.0 0.00 0.00 0.00 92 1012.8
20260510061551 15 0 0.0 0.0 0.00 0.00 0.00 92 1012.8
20260510061045 15 0 0.0 0.0 0.00 0.00 0.00 92 1012.8
20260510060549 15 0 0.0 0.0 0.00 0.00 0.00 92 1012.8
20260510060051 15 0 0.0 0.0 0.00 0.00 0.00 92 1012.6
20260510055544 15 0 0.0 0.0 0.00 0.00 0.00 91 1012.6
20260510055051 15 0 0.0 0.0 0.00 0.00 0.00 91 1012.5
20260510054552 15 0 0.0 0.0 0.00 0.00 0.00 91 1012.6
20260510054048 15 0 0.0 0.0 0.00 0.00 0.00 91 1012.7
20260510053544 15 0 0.0 0.0 0.00 0.00 0.00 91 1012.8
20260510053101 15 0 0.0 0.0 0.00 0.00 0.00 91 1012.9
20260510052544 15 0 0.0 0.0 0.00 0.00 0.00 91 1012.9
20260510052048 15 0 0.0 0.0 0.00 0.00 0.00 91 1013.0
20260510051557 15 0 0.0 0.0 0.00 0.00 0.00 91 1012.9
20260510051048 15 0 0.0 0.0 0.00 0.00 0.00 91 1013.0
20260510050545 15 0 0.0 0.0 0.00 0.00 0.00 91 1013.0
20260510050056 15 0 0.0 0.0 0.00 0.00 0.00 91 1013.0
20260510045552 15 0 0.0 0.0 0.00 0.00 0.00 91 1013.0
20260510045048 15 0 0.0 0.0 0.00 0.00 0.00 91 1013.1
20260510044628 15 0 0.0 0.0 0.00 0.00 0.00 91 1013.0
20260510044045 15 0 0.0 0.0 0.00 0.00 0.00 91 1013.1
20260510043545 15 0 0.0 0.0 0.00 0.00 0.00 91 1013.3
20260510043054 15 0 0.0 0.0 0.00 0.00 0.00 90 1013.3
20260510042544 16 0 0.0 0.0 0.00 0.00 0.00 90 1013.2
20260510042051 16 0 0.0 0.0 0.00 0.00 0.00 90 1013.3
20260510041559 16 0 0.0 0.0 0.00 0.00 0.00 90 1013.4
20260510041045 16 0 0.0 0.0 0.00 0.00 0.00 90 1013.4
20260510040545 16 0 0.0 0.0 0.00 0.00 0.00 89 1013.3
20260510040056 16 0 0.0 0.0 0.00 0.00 0.00 89 1013.3
20260510035548 16 0 0.0 0.0 0.00 0.00 0.00 89 1013.1
20260510035044 16 0 0.0 0.0 0.00 0.00 0.00 89 1013.1
20260510034555 16 0 0.0 0.0 0.00 0.00 0.00 89 1013.2
20260510034048 16 0 0.0 0.0 0.00 0.00 0.00 89 1013.1
20260510033550 16 0 0.0 0.0 0.00 0.00 0.00 89 1013.3
20260510033101 16 0 0.0 0.0 0.00 0.00 0.00 89 1013.1
20260510032547 16 0 0.0 0.0 0.00 0.00 0.00 89 1013.1
20260510032047 16 0 0.0 0.0 0.00 0.00 0.00 88 1013.1
20260510031558 16 0 0.0 0.0 0.00 0.00 0.00 87 1013.1
20260510031051 16 0 0.0 0.0 0.00 0.00 0.00 87 1013.0
20260510030550 16 0 0.0 0.0 0.00 0.00 0.00 87 1013.1
20260510030057 16 0 0.0 0.0 0.00 0.00 0.00 87 1013.0
20260510025547 16 0 0.0 0.0 0.00 0.00 0.00 87 1012.9
20260510025047 16 0 0.0 0.0 0.00 0.00 0.00 86 1012.9
20260510024554 16 0 0.0 0.0 0.00 0.00 0.00 86 1012.9
20260510024048 16 0 0.0 0.0 0.00 0.00 0.00 86 1012.9
20260510023546 16 0 0.0 0.0 0.00 0.00 0.00 86 1013.0
20260510023053 17 0 0.0 0.0 0.00 0.00 0.00 86 1012.9
20260510022547 17 0 0.0 0.0 0.00 0.00 0.00 86 1012.9
20260510022047 17 0 0.0 0.0 0.00 0.00 0.00 86 1012.9
20260510021550 17 0 0.0 0.0 0.00 0.00 0.00 85 1012.9
20260510021047 17 0 0.0 0.0 0.00 0.00 0.00 85 1012.8
20260510020548 17 0 0.0 0.0 0.00 0.00 0.00 85 1012.7
20260510020051 17 0 0.0 0.0 0.00 0.00 0.00 85 1012.6
20260510015546 17 0 0.0 0.0 0.00 0.00 0.00 84 1012.5
20260510015049 17 0 0.0 0.0 0.00 0.00 0.00 84 1012.4
20260510014554 17 0 0.0 0.0 0.00 0.00 0.00 84 1012.5
20260510014047 17 0 0.0 0.0 0.00 0.00 0.00 84 1012.4
20260510013549 17 0 0.0 0.0 0.00 0.00 0.00 83 1012.3
20260510013049 18 0 0.0 0.0 0.00 0.00 0.00 83 1012.2
20260510012547 18 0 0.0 0.0 0.00 0.00 0.00 83 1012.3
20260510012047 18 0 0.0 0.0 0.00 0.00 0.00 83 1012.2
20260510011556 18 0 0.0 0.0 0.00 0.00 0.00 83 1012.1
20260510011048 18 0 0.0 0.0 0.00 0.00 0.00 83 1011.8
20260510010547 18 0 0.0 0.0 0.00 0.00 0.00 83 1011.8
20260510010114 18 0 0.0 0.0 0.00 0.00 0.00 82 1011.6
20260510005548 18 0 0.0 0.0 0.00 0.00 0.00 82 1011.5
20260510005048 18 0 0.0 0.0 0.00 0.00 0.00 82 1011.5
20260510004557 18 0 0.0 0.0 0.00 0.00 0.00 82 1011.4
20260510004048 18 0 0.0 0.0 0.00 0.00 0.00 81 1011.4
20260510003547 19 0 0.0 0.0 0.00 0.00 0.00 81 1011.4
20260510003051 19 0 0.0 0.0 0.00 0.00 0.00 82 1011.4
20260510002544 19 0 0.0 0.0 0.00 0.00 0.00 82 1011.4
20260510002044 19 0 0.0 0.0 0.00 0.00 0.00 82 1011.3
20260510001551 19 0 0.0 0.0 0.00 0.00 0.00 82 1011.3
20260510001048 19 0 0.0 4.8 0.00 0.00 0.00 82 1011.1
20260510000545 19 0 0.0 4.8 0.00 0.00 0.00 82 1011.0
20260510000052 19 0 0.0 4.8 0.00 0.00 0.00 82 1011.0
20260509235544 19 0 0.0 4.8 0.00 0.00 0.00 82 1011.2
20260509235045 19 0 0.0 4.8 0.00 0.00 0.00 82 1011.1
20260509234621 19 0 0.0 1.6 0.00 0.00 0.00 83 1011.2
20260509234044 19 0 0.0 1.6 0.00 0.00 0.00 83 1011.0
20260509233546 19 0 0.0 1.6 0.00 0.00 0.00 83 1010.9
20260509233051 19 0 0.0 0.0 0.00 0.00 0.00 83 1011.0
20260509232550 20 0 0.0 0.0 0.00 0.00 0.00 83 1011.0
20260509232048 20 0 0.0 0.0 0.00 0.00 0.00 83 1011.1
20260509231557 20 0 0.0 0.0 0.00 0.00 0.00 82 1011.0
20260509231044 20 0 0.0 0.0 0.00 0.00 0.00 82 1010.8
20260509230545 20 0 0.0 0.0 0.00 0.00 0.00 81 1010.7
20260509230054 20 0 0.0 0.0 0.00 0.00 0.00 81 1010.8
20260509225546 20 0 0.0 3.2 0.00 0.00 0.00 81 1010.9
20260509225044 20 0 0.0 4.8 0.00 0.00 0.00 80 1010.8
20260509224553 20 0 0.0 4.8 0.00 0.00 0.00 80 1010.7
20260509224049 20 213 0.0 3.2 0.00 0.00 0.00 81 1010.6
20260509223549 20 0 0.0 3.2 0.00 0.00 0.00 81 1010.7
20260509223056 20 0 0.0 0.0 0.00 0.00 0.00 81 1010.7
20260509222552 21 0 0.0 0.0 0.00 0.00 0.00 78 1010.6
20260509222045 21 0 0.0 0.0 0.00 0.00 0.00 80 1010.5
20260509221555 21 0 0.0 0.0 0.00 0.00 0.00 79 1010.6
20260509221047 21 0 0.0 4.8 0.00 0.00 0.00 79 1010.6
20260509220544 21 0 0.0 4.8 0.00 0.00 0.00 79 1010.5
20260509215548 21 0 0.0 1.6 0.00 0.00 0.00 81 1010.4
20260509215044 21 0 0.0 1.6 0.00 0.00 0.00 80 1010.6
20260509214555 21 0 0.0 4.8 0.00 0.00 0.00 77 1010.5
20260509214045 21 0 0.0 6.4 0.00 0.00 0.00 78 1010.6
20260509213548 21 0 0.0 6.4 0.00 0.00 0.00 80 1010.6
20260509213051 21 188 0.0 6.4 0.00 0.00 0.00 81 1010.4
20260509212544 21 0 0.0 6.4 0.00 0.00 0.00 79 1010.4
20260509212048 21 0 0.0 1.6 0.00 0.00 0.00 81 1010.4
20260509211556 21 0 0.0 3.2 0.00 0.00 0.00 80 1010.5
20260509211044 21 0 0.0 3.2 0.00 0.00 0.00 79 1010.6
20260509210546 21 0 0.0 3.2 0.00 0.00 0.00 78 1010.6
20260509210057 21 207 0.0 4.8 0.00 0.00 0.00 77 1010.6
20260509205545 22 207 0.0 4.8 0.00 0.00 0.00 76 1010.5
20260509205051 22 0 0.0 0.0 0.00 0.00 0.00 78 1010.4
20260509204600 22 0 0.0 1.6 0.00 0.00 0.00 76 1010.3
20260509204045 22 0 0.0 1.6 0.00 0.00 0.00 78 1010.3
20260509203546 22 0 0.0 1.6 0.00 0.00 0.00 76 1010.3
20260509203138 21 0 0.0 0.0 0.00 0.00 0.00 79 1010.4
20260509202546 21 0 0.0 0.0 0.00 0.00 0.00 79 1010.4
20260509202050 21 0 0.0 0.0 0.00 0.00 0.00 78 1010.6
20260509201603 21 0 0.0 3.2 0.00 0.00 0.00 77 1010.5
20260509201048 21 0 0.0 3.2 0.00 0.00 0.00 75 1010.4
20260509200548 21 0 0.0 3.2 0.00 0.00 0.00 76 1010.4
20260509200103 21 215 0.0 6.4 0.00 0.00 0.00 77 1010.6
20260509195548 21 0 0.0 6.4 0.00 0.00 0.00 77 1010.7
20260509195052 21 0 0.0 6.4 0.00 0.00 0.00 78 1010.8
20260509194549 21 0 0.0 6.4 0.00 0.00 0.00 79 1010.7
20260509194049 21 0 0.0 0.0 0.00 0.00 0.00 80 1010.8
20260509193549 20 0 0.0 0.0 0.00 0.00 0.00 82 1010.8
20260509193114 20 0 0.0 0.0 0.00 0.00 0.00 83 1011.0
20260509192550 20 0 0.0 0.0 0.00 0.00 0.00 82 1011.0
20260509192049 20 0 0.0 1.6 0.00 0.00 0.00 81 1011.0
20260509191613 20 0 0.0 1.6 0.00 0.00 0.00 79 1011.1
20260509191052 20 0 0.0 6.4 0.00 0.00 0.00 79 1011.2